LFBZ

Biarritz-Bayonne/Anglet

Airport
ICAO code
LFBZ
Summary
ICAO Region
EUR
ICAO Territory
Location

Biarritz-Bayonne/Anglet, Aquitaine,

Coordinates
43° 28' 6" N , 1° 31' 23" W
KCC
Airport WX
Fog
Metar
Observation
LFBZ 052300Z AUTO 05006KT 9999 OVC047 08/03 Q1036
Station
Biarritz
Date/Time
2023-02-06 00:00:00
Wind direction
50°
Wind speed
06 kts
Lowest cloud amount
overcast
Temperature
8°C
Dew point
3°C
Humidity
70%
QNH
1036 hPa
Weather condition
n/a

Description

International airport serving Biarritz.

Climatology

Temperate Marine climate/Oceanic climate (Köppen climate classification Cfb). Moderately cool summer and comparatively warm winter with a temperature range of only 14°C. Prevailing south-westerly winds from the Atlantic Ocean.

Runways

Designator Length Width Surface Rops
9/27 2250 45 ASP Yes/Yes

Airport map

Aerial View

SKYbrary Partners:

Safety knowledge contributed by: